Showing default

FLOCK 1C 9, 40035

Orbit data source: Space-Track

FLOCK 1C 9, 40035 is a payload satellite owned by Planet Labs (US) in SSO that was launched on Thu, 19 Jun 2014 UTC via a DNEPR launch vehicle from the Orenburg, Russia (OREN). Payloads include a variety of satellites, spacecraft, and rockets equipped with specific instruments for various scientific and technological missions. These include communications satellites like Starlink; space stations such as the ISS; scientific satellites like the Hubble; Earth observation satellites from companies like Planet Labs, Umbra, and HawkEye 360; GPS; miniature CubeSats for education and research; and military/defense satellites.

Loading next visibility...
FLOCK 1C 9 details
Identifier
40035, 2014-033AB
Orbit
SSO
Last TLE update16 hours ago
Origin
Flag of USPlanet Labs (US)
ManufacturerPlanet Labs
MissionNon-operational Commercial Imaging
Bus & MotorCUBESAT 3U, Unknown motor
Mass4.25 kg wet, 4.25 kg dry
Launch date (UTC)
2014-06-19 (11 years ago)
Launch vehicle
DNEPR
Launch site
Orenburg, Russia (OREN)
Object type
Payload
Rocket body
Debris
Shape & HBRBox + 2 Pan, 0.3 m
Radar Cross Section0.108 m², Small (<0.1 m²)

Expand to show TLE details & history

TLE from 16 hours ago
0 FLOCK 1C 9
1 40035U 14033AB  25023.95055030  .01133310  54778-3  41838-2 0  9994
2 40035  98.0482  37.7968 0008478 116.0339 244.1804 15.88216871578083
Epoch: 2025-01-23T22:48Z
Definitive object data (Epoch: 2025-01-23T22:48:47.545Z)
Latitude-0.00013°
Longitude-67.922°
Altitude312.918 km
Speed7.719 km/s
True Right ascension02h 31m 11s
True Declination0° 00' 00"
Sunlit
Object was in daylight at TLE epoch
Visualization TLE readout
Latitude-2.11422°
Longitude112.56279°
Altitude304.086 km
Speed7.727 km/s
Apparent Right ascension11h 53m 21s
Apparent Declination-57° 29' 53"
Sunlit
Object is in daylight
Visualization observer readout
Local Sidereal Time15:57:37
Azimuth210.025° SW
Elevation-19.985°
Doppler factor1
Orbital elements
Apogee altitude309.852 km
Perigee altitude298.522 km
Semi-major axis6,682.324 km
Eccentricity0.0008478
Inclination98.0482°
RAAN37.7968°
Arg. of periapsis116.0339°
True anomaly244.09299°
Mean anomaly244.1804°
Eccentric anomaly244.13669°
Mean motion3.9733 °/min
BSTAR0.0041838
Orbital period90.6 mins
Loading maneuver chart data...
Loading historical data...
Loading historical data...
Loading historical data...
Loading historical data...
Loading historical data...
Loading historical data...
Loading historical data...

FLOCK 1C 9 Visibility forecast

Observer location: undefined°, undefined

Span
Click to sort rows by Start time (UTC) header in descending order
Start Az.
Max El. time (UTC)
Max El. Az.
Max El.
End time (UTC)
End Az.
4 mins2025-01-25 00:38:23.932Z148.692° SSE2025-01-25 00:40:23.932Z53.832° ENE36.774°2025-01-25 00:42:23.932Z358.593° N
|